Location: Downe
(51.3167°N, 0.0500°E)
Time: 04:37:12
(UTC+00:00)

Cosmos 2058 - Pass Details

Date: 17 November 2019
Orbit: 561 x 585 km, 82.5° (Epoch: 09 December)

Event Time Altitude Azimuth Distance (km) Brightness Sun altitude
Exits shadow 05:41:48 27° 275° (W) 1,153 3.8 -15.1°
Maximum altitude 05:42:26 28° 291° (WNW) 1,122 3.8 -15.0°
Drops below altitude 10° 05:46:05 10° 351° (N) 1,911 5.4 -14.4°
Sets 05:48:32 0° 3° (N) 2,812 6.3 -14.1°
